Logo
Dags dato: 24/10/2017

Arduino sensor with ESP8266 development

Everything here is developed and logged by MV-Teknik.dk.

Back to sensor list

Log - only showing the last 20 entries
Entry IDDTGLightHumidity Temperature C P-IR
1392015-12-27 GMT 12:20:54 Z37242221
1382015-12-27 GMT 12:19:26 Z38542221
1372015-12-27 GMT 12:18:26 Z81441231
1362015-12-26 GMT 19:17:53 Z18243231
1352015-12-26 GMT 19:16:26 Z18945231
1342015-12-26 GMT 19:14:58 Z18749281
1332015-12-26 GMT 19:13:30 Z17153241
1322015-12-26 GMT 19:12:02 Z17665241
1312015-12-26 GMT 19:10:34 Z5744231
1302015-12-26 GMT 19:09:06 Z15642240
1292015-12-26 GMT 19:07:38 Z14341231
1282015-12-26 GMT 19:06:10 Z14941231
1272015-12-26 GMT 19:04:42 Z15540231
1262015-12-26 GMT 19:03:42 Z15640231
1252015-12-26 GMT 11:23:48 Z28252231
1242015-12-26 GMT 11:22:20 Z28655231
1232015-12-26 GMT 11:20:53 Z26456230
1222015-12-26 GMT 11:19:25 Z24062231
1212015-12-26 GMT 11:17:57 Z27574231
1202015-12-26 GMT 11:16:30 Z1180240
Graph created using http://www.rgraph.net graphing scripts
[No canvas support]